Temperature
29 30 30 30 31 31 31 31 29 27 27 28 29 29 29 28 27 27 26 25 24 23 23 22 22 21 21 21 20 20 19 19 19 18 18 18 18 17 17 17 17 17 17 17
29 30 30 30 31 31 31 31 30 29 28 29 29 29 28 28 27 26 25 24 23 23 22 22 21 21 21 20 20 19 19 19 18 18 18 18 18 17 17 17 16 16 16 16
28 30 30 29 30 31 31 31 31 29 29 30 29 28 27 27 26 25 24 23 23 22 22 21 21 20 20 20 19 19 19 18 18 18 18 18 17 17 17 17 16 16 16 16
28 29 27 28 30 30 30 30 31 30 30 29 28 27 27 26 25 25 24 23 22 22 21 21 20 20 20 19 19 19 18 18 18 18 17 17 17 17 17 16 16 16 16 16
28 28 27 28 29 30 29 29 29 29 29 29 27 27 26 25 24 23 23 22 22 21 21 20 20 19 19 19 19 18 18 18 18 17 17 17 17 17 16 16 16 16 15 15
27 27 26 28 29 30 30 28 28 28 28 28 28 26 25 24 23 22 22 21 21 20 20 19 19 19 19 18 18 18 18 17 17 17 17 17 16 16 16 16 15 15 15 15
27 27 27 28 29 30 28 26 27 28 27 27 26 25 24 23 22 21 21 21 20 20 19 19 19 18 18 18 18 17 17 17 17 17 17 17 16 16 16 16 15 15 15 15
27 26 26 28 28 27 25 26 27 26 26 25 24 24 23 22 21 21 20 20 19 19 19 18 18 18 18 17 17 17 17 17 17 17 16 16 16 16 16 15 15 15 15 15
26 26 26 26 25 25 25 26 26 25 25 24 23 23 22 21 20 20 19 19 19 18 18 18 18 17 17 17 17 16 16 16 16 16 16 16 16 16 15 15 15 15 15 15
26 26 26 25 25 25 25 25 24 24 24 23 23 22 21 20 20 19 19 18 18 18 17 17 17 17 17 17 16 16 16 16 16 16 16 16 16 15 15 15 15 15 15 14
26 26 25 25 24 24 24 24 24 23 23 22 22 21 20 19 19 18 18 18 17 17 17 17 16 16 16 16 16 16 15 15 15 15 15 15 15 15 15 15 15 15 14 14
25 24 25 24 24 24 23 23 23 22 22 21 21 20 19 19 18 18 17 17 17 17 16 16 16 16 16 16 15 15 15 15 15 15 15 15 15 15 15 15 15 15 14 14
24 23 23 23 23 23 23 22 22 21 21 20 20 19 19 18 17 17 17 16 16 16 16 16 15 15 15 15 15 15 15 15 15 15 15 15 15 15 15 15 14 14 14 14
23 22 22 22 22 22 22 22 21 21 20 20 19 19 18 17 17 16 16 16 16 16 15 15 15 15 15 15 14 14 14 14 14 15 15 15 15 15 15 15 14 14 14 14
22 22 22 22 21 21 21 21 20 20 19 19 18 18 17 17 16 16 16 15 15 15 15 15 15 14 14 14 14 14 14 14 14 14 14 14 15 15 15 14 14 14 14 14
21 21 21 21 21 20 20 20 20 19 18 18 17 17 16 16 16 15 15 15 15 15 14 14 14 14 14 14 14 14 14 14 14 14 14 14 14 14 14 14 14 14 14 13
20 20 20 20 20 20 19 19 19 18 18 17 17 16 16 16 15 15 15 15 14 14 14 14 14 14 13 14 14 14 14 14 14 14 14 14 14 14 14 14 14 14 13 13
20 20 20 19 19 19 18 18 18 17 17 16 16 16 15 15 15 14 14 14 14 14 13 13 13 13 13 13 13 13 13 14 14 13 13 14 14 13 13 13 13 13 13 13
19 19 19 18 18 18 18 17 17 16 16 16 15 15 15 14 14 14 14 13 13 13 13 13 13 13 13 13 13 13 13 13 13 13 13 13 13 13 13 13 13 13 12 12
18 18 18 18 17 17 17 16 16 16 15 15 15 14 14 14 14 13 13 13 13 13 12 12 12 12 12 12 13 12 13 13 13 13 13 13 13 13 12 12 12 12 12 11
17 17 17 17 16 16 16 16 15 15 15 14 14 14 14 13 13 13 13 13 13 12 12 12 12 12 12 12 12 12 12 12 12 12 12 12 12 12 12 12 11 11 11 11
16 16 16 16 16 15 15 15 15 14 14 14 14 14 13 13 13 13 12 12 12 12 12 12 12 12 12 12 11 11 12 12 11 11 11 11 11 11 11 11 11 10 10 10
15 15 15 15 15 15 14 14 14 14 14 13 13 13 13 13 13 13 12 12 12 12 12 11 11 11 11 11 11 11 11 11 11 11 11 10 10 10 10 10 10 10 10 10
15 14 14 14 14 14 14 14 14 13 13 13 13 13 13 13 13 12 12 12 12 12 11 11 11 11 11 11 11 11 11 11 11 10 10 10 10 10 10 10 10 10 10 9
14 14 14 14 14 14 14 13 13 13 13 13 13 13 12 12 12 12 12 12 12 11 11 11 11 11 11 10 10 10 10 10 10 10 10 10 9 9 9 9 9 9 9 9
13 14 13 13 14 13 13 13 13 13 13 13 13 12 12 12 12 12 12 12 12 11 11 11 11 10 10 10 10 10 10 10 10 10 9 9 9 9 9 9 9 9 8 8
13 13 13 13 14 14 13 13 13 13 13 12 12 12 12 12 12 12 12 11 11 11 11 11 11 10 10 10 10 10 9 9 9 9 9 9 9 9 8 8 8 8 8 8
Wind_Speed
9 11 9 10 9 8 8 5 3 4 4 3 2 4 6 7 7 7 6 6 6 5 5 5 4 3 3 3 2 2 3 3 4 4 3 2 2 2 1 2 2 1 1 2
10 10 9 10 8 7 7 4 3 4 2 3 5 5 5 6 6 6 6 5 5 5 5 4 3 3 3 2 2 2 2 2 3 3 3 3 2 2 1 1 1 1 1 1
10 9 8 9 8 7 5 4 3 2 2 4 7 7 6 5 6 6 6 5 5 5 5 3 3 3 2 2 2 2 1 1 2 2 2 2 2 2 1 1 1 1 1 1
9 7 8 6 6 6 4 2 2 6 6 6 7 6 7 7 7 6 6 5 5 4 4 3 3 3 2 2 2 1 1 1 1 2 1 1 1 1 1 1 0 0 1 0
8 8 8 6 5 5 4 1 3 4 5 4 7 6 7 9 8 7 6 5 5 5 4 4 4 3 2 2 2 1 1 0 1 1 1 1 2 1 1 1 1 1 1 1
8 8 8 4 4 3 3 3 4 4 3 4 3 2 5 7 7 6 6 5 5 5 5 4 4 3 2 2 1 0 1 0 0 1 1 1 1 1 1 1 2 2 1 1
10 9 4 2 2 2 3 1 4 5 5 6 6 5 6 6 6 6 5 5 5 5 4 3 3 3 2 2 2 2 1 1 1 1 1 1 1 1 1 1 2 2 2 2
8 8 4 5 3 2 3 4 4 5 6 7 7 7 6 6 6 5 4 5 5 4 3 3 3 3 2 2 2 2 1 0 1 0 2 1 2 2 2 2 3 3 3 4
1 1 4 7 8 6 5 5 6 6 6 6 5 5 6 6 5 4 4 4 4 3 3 3 3 2 2 2 2 1 1 0 0 0 1 1 1 2 2 3 4 3 3 3
2 4 5 5 6 6 5 5 5 5 5 4 5 5 5 4 4 4 4 4 4 3 3 3 3 3 2 2 2 1 0 1 1 1 1 2 2 2 2 2 3 3 3 3
3 3 4 5 4 4 4 4 4 4 4 4 4 4 4 3 4 4 3 4 4 3 3 3 3 3 3 2 2 1 1 1 2 2 2 2 1 2 1 1 2 3 3 2
1 2 1 3 3 4 4 4 5 5 5 5 4 4 4 3 3 3 3 3 4 4 3 3 3 3 3 2 2 1 2 2 3 3 3 3 2 1 0 2 2 2 2 2
3 3 4 4 3 4 4 3 4 4 3 3 3 3 3 3 3 3 3 3 3 3 3 3 4 4 3 1 1 2 2 3 3 3 3 2 2 2 1 2 2 2 3 3
4 3 3 2 2 3 3 3 4 4 4 3 3 3 3 3 3 3 3 4 3 4 4 4 4 4 3 2 2 3 3 3 3 3 3 3 3 3 2 2 2 1 3 4
1 1 2 2 2 2 2 2 2 2 3 3 2 3 3 3 3 3 4 4 4 3 4 4 4 4 4 3 2 3 3 3 3 4 3 3 3 3 3 2 2 1 1 1
1 1 1 1 1 1 1 1 1 2 2 2 2 2 2 2 3 3 4 4 4 4 4 4 4 4 3 4 3 3 2 4 4 4 4 3 3 3 3 2 1 2 2 1
3 3 2 2 1 1 0 1 2 2 2 2 2 2 2 2 2 3 3 4 4 3 3 4 4 4 4 4 4 4 3 3 4 4 4 3 3 3 3 3 3 2 1 1
3 2 1 1 1 1 1 1 1 1 2 2 2 2 2 1 2 3 4 4 4 4 4 4 4 4 4 4 4 4 4 3 3 3 3 3 3 3 3 3 3 2 1 1
2 1 1 0 1 1 1 1 1 1 1 1 1 2 2 2 2 2 3 3 3 4 4 4 5 5 5 4 5 4 4 4 3 3 3 3 3 3 3 3 3 2 2 2
2 2 1 1 0 0 0 1 1 1 1 1 1 1 2 2 2 2 2 3 3 4 3 3 3 4 4 4 5 4 5 5 4 3 3 3 3 3 3 4 4 3 3 3
1 1 1 1 1 0 1 1 1 1 1 1 1 2 2 2 2 2 3 3 2 3 4 3 3 3 4 5 5 4 4 4 4 4 4 4 4 4 4 3 3 3 2 2
1 1 1 1 0 0 1 1 1 1 1 1 2 2 2 2 3 2 2 2 2 2 3 3 3 4 5 5 5 5 5 4 3 3 3 3 3 3 4 4 4 3 3 2
1 1 1 1 1 1 1 0 1 1 1 1 2 2 3 2 3 3 2 2 2 2 2 3 3 4 5 5 4 5 4 4 3 3 3 3 3 3 3 4 3 3 3 3
2 1 1 1 0 0 1 1 1 1 1 1 1 1 2 2 2 3 2 1 1 0 2 2 1 2 4 3 3 3 3 3 3 3 3 3 3 3 3 4 4 3 3 3
1 0 0 1 1 1 1 1 2 2 2 1 1 1 2 2 2 2 2 1 1 0 2 1 3 3 2 3 3 3 3 3 3 3 3 3 3 3 3 3 3 3 3 3
2 2 1 1 1 1 2 1 1 1 1 1 1 1 1 1 2 2 2 1 0 1 2 1 1 1 2 2 2 3 3 3 3 3 3 3 3 3 3 3 4 3 3 3
3 2 2 2 2 2 1 1 1 1 1 1 2 1 1 1 2 3 3 2 1 1 2 2 1 2 2 2 2 2 3 2 3 3 3 3 3 3 3 3 3 3 3 3
Wind_Direction
254 261 256 261 257 262 263 266 238 214 217 243 161 112 99 103 104 100 86 74 73 77 74 71 67 80 100 100 105 129 143 163 164 165 164 175 197 200 200 225 243 260 295 307
253 251 257 264 265 257 261 259 205 200 218 187 134 109 91 93 95 94 86 78 67 68 73 71 68 73 89 98 118 125 156 168 157 171 165 171 195 203 207 228 258 281 279 300
267 259 257 265 268 266 264 286 257 187 154 105 93 95 96 98 93 86 91 92 79 70 67 69 77 76 76 87 99 125 158 159 155 166 176 191 218 207 204 212 235 277 299 45
261 266 259 260 286 292 283 300 34 82 80 84 87 87 89 92 89 81 72 72 70 68 73 59 55 52 50 63 88 98 118 133 157 159 177 186 207 216 184 181 194 205 242 248
263 260 255 264 263 258 250 344 51 87 94 96 94 83 78 67 71 71 69 66 69 58 54 50 41 36 36 60 80 62 23 57 125 163 183 182 192 207 185 206 239 235 238 235
260 266 259 246 236 260 225 168 54 63 70 70 72 95 81 69 69 68 63 58 61 60 51 43 34 25 26 22 50 42 294 351 47 115 163 172 180 204 210 224 242 253 260 242
256 262 256 325 344 288 259 83 41 59 55 55 54 57 82 80 70 66 64 57 58 58 52 42 26 18 21 9 353 342 11 49 64 55 155 166 174 175 198 220 246 255 261 249
251 261 271 12 353 27 77 68 59 60 63 66 67 68 72 73 72 63 55 52 48 49 50 39 26 15 8 8 343 343 360 51 101 154 257 231 175 190 206 220 239 250 250 256
250 163 73 54 70 77 76 68 62 62 64 67 69 69 64 65 64 60 49 44 37 35 39 28 12 5 350 347 329 320 315 319 72 285 286 280 234 217 224 231 247 250 245 248
155 130 102 84 79 73 63 61 53 55 62 58 65 68 64 60 57 51 43 35 27 17 12 9 356 347 340 338 342 353 330 296 270 247 258 263 254 241 239 245 250 259 263 272
191 141 117 89 80 85 82 71 60 52 57 61 66 65 63 61 54 44 32 22 16 5 353 351 349 346 342 343 345 333 305 267 255 250 247 254 262 293 272 286 249 254 279 288
199 123 151 110 98 89 81 67 55 45 44 51 55 57 56 56 47 36 19 14 7 357 351 346 347 340 335 330 322 308 289 273 269 262 247 231 223 272 265 216 220 209 231 264
79 72 72 81 68 76 84 71 64 61 59 50 45 55 56 56 42 25 9 4 356 354 353 350 341 332 325 325 308 284 280 283 282 279 272 257 248 242 253 242 232 229 231 241
75 97 110 110 95 75 70 65 59 57 57 56 49 50 51 44 27 9 356 346 349 353 349 351 342 338 333 320 298 285 280 271 280 280 278 279 276 271 264 258 248 231 237 235
86 91 108 97 89 84 70 58 53 50 48 47 53 47 35 28 15 1 355 345 347 345 348 350 353 346 334 319 311 304 301 296 293 289 287 290 286 283 283 284 285 287 285 249
178 153 151 137 117 92 52 21 26 32 34 32 36 37 29 21 11 359 349 343 338 344 352 346 335 325 322 319 306 286 277 280 290 294 294 293 297 289 291 300 297 292 293 311
197 210 213 210 194 210 298 350 12 19 9 358 9 13 18 19 357 343 339 345 349 344 335 334 330 336 337 324 313 301 287 272 265 282 292 298 300 297 302 304 301 297 312 344
200 222 225 187 218 258 285 322 359 5 360 2 12 1 342 339 336 342 336 338 342 340 335 335 343 343 336 336 318 304 299 291 280 282 289 302 300 298 298 295 294 304 344 1
201 221 251 273 275 279 308 348 7 1 358 351 349 335 331 334 342 336 330 331 328 322 332 357 354 336 338 352 334 310 310 316 304 301 300 293 286 301 313 318 318 322 328 332
186 191 201 232 163 102 338 338 335 335 325 318 334 331 326 329 340 332 328 318 320 336 349 359 332 328 338 355 344 326 326 326 320 317 315 318 333 341 338 330 327 333 349 357
181 178 162 136 96 62 353 354 332 301 318 313 293 290 299 310 315 319 316 307 341 3 346 342 323 330 339 342 318 314 323 326 331 340 343 342 343 342 336 332 336 349 3 359
130 115 117 112 103 41 28 23 347 325 329 316 302 297 296 299 304 311 322 320 338 19 331 323 337 360 353 333 320 319 323 325 331 338 344 342 340 339 338 344 352 0 3 360
100 92 72 49 17 10 14 4 331 312 296 288 298 305 306 318 316 309 311 330 347 18 326 349 19 11 339 321 319 319 321 331 339 346 351 349 343 341 341 339 345 353 349 346
116 84 71 50 5 307 319 321 314 294 269 263 278 307 310 298 300 304 326 88 90 338 327 55 127 299 301 313 320 322 329 339 341 338 335 330 328 335 341 332 329 343 351 352
137 143 196 280 261 254 234 252 258 270 277 290 301 297 293 299 303 315 321 3 115 250 324 172 198 245 291 319 334 334 333 339 337 331 325 323 327 332 332 327 337 354 354 356
206 217 202 250 271 278 266 273 295 317 324 322 318 337 333 339 334 319 311 340 45 286 312 5 273 262 301 324 337 337 340 344 336 327 328 327 327 328 329 335 351 0 356 2
205 196 201 228 238 255 280 294 300 315 326 328 313 311 321 327 323 318 319 338 0 329 324 333 326 301 296 312 324 336 339 339 343 345 349 349 347 345 342 346 358 1 0 1
Height
1473 1468 1466 1467 1465 1463 1467 1470 1482 1487 1485 1480 1476 1477 1479 1482 1485 1489 1492 1495 1497 1499 1500 1501 1502 1503 1503 1504 1505 1505 1506 1506 1507 1507 1508 1508 1509 1509 1509 1509 1509 1509 1508 1507
1474 1466 1465 1467 1464 1464 1465 1466 1473 1477 1479 1473 1473 1477 1481 1483 1487 1489 1492 1496 1498 1500 1500 1501 1502 1503 1503 1503 1504 1504 1505 1505 1506 1506 1507 1507 1507 1507 1507 1507 1507 1506 1506 1505
1480 1467 1469 1479 1468 1464 1464 1463 1466 1475 1475 1471 1474 1479 1483 1486 1489 1492 1495 1497 1499 1500 1501 1502 1502 1503 1503 1503 1503 1503 1504 1504 1504 1505 1505 1505 1506 1506 1505 1505 1504 1504 1503 1503
1477 1477 1494 1476 1461 1462 1463 1464 1464 1467 1471 1474 1478 1483 1486 1489 1491 1494 1496 1498 1499 1501 1501 1502 1502 1502 1502 1502 1502 1502 1502 1502 1503 1503 1503 1504 1504 1504 1504 1503 1503 1502 1501 1501
1478 1483 1484 1471 1464 1463 1467 1471 1468 1470 1474 1477 1480 1484 1488 1490 1492 1495 1497 1498 1499 1500 1501 1501 1501 1501 1501 1501 1501 1501 1501 1501 1501 1501 1501 1501 1501 1501 1502 1501 1501 1501 1500 1499
1478 1487 1491 1476 1464 1462 1466 1477 1472 1473 1475 1477 1480 1485 1491 1492 1494 1496 1497 1498 1499 1500 1500 1500 1500 1500 1500 1500 1500 1500 1500 1500 1500 1500 1499 1499 1499 1499 1499 1499 1499 1499 1498 1497
1478 1482 1478 1468 1464 1466 1480 1485 1476 1476 1478 1481 1484 1488 1492 1494 1495 1497 1498 1498 1499 1499 1500 1500 1500 1499 1499 1499 1499 1499 1498 1498 1498 1497 1497 1497 1497 1497 1497 1497 1497 1496 1495 1494
1476 1485 1486 1470 1468 1475 1482 1479 1479 1480 1482 1485 1487 1490 1492 1494 1495 1497 1498 1499 1499 1499 1499 1499 1499 1498 1498 1497 1497 1497 1496 1496 1495 1495 1495 1495 1495 1494 1494 1494 1494 1493 1492 1491
1473 1480 1476 1474 1476 1479 1480 1481 1482 1483 1485 1488 1490 1492 1494 1496 1497 1497 1498 1499 1499 1499 1498 1498 1498 1498 1496 1496 1495 1495 1494 1494 1493 1493 1493 1493 1492 1492 1491 1491 1491 1490 1490 1489
1470 1473 1475 1477 1478 1480 1482 1483 1485 1486 1488 1490 1492 1493 1495 1497 1498 1498 1499 1499 1499 1498 1498 1497 1497 1496 1495 1494 1493 1492 1492 1491 1491 1491 1491 1490 1490 1489 1489 1489 1488 1487 1487 1487
1471 1475 1477 1479 1481 1482 1484 1485 1487 1488 1490 1491 1493 1494 1496 1497 1498 1498 1498 1498 1498 1497 1497 1496 1495 1494 1493 1492 1491 1490 1489 1489 1489 1489 1488 1488 1487 1487 1486 1486 1486 1485 1484 1484
1474 1476 1477 1481 1482 1483 1485 1487 1488 1490 1491 1493 1494 1495 1496 1497 1498 1498 1498 1497 1496 1496 1495 1494 1493 1491 1490 1489 1488 1488 1487 1487 1486 1486 1486 1485 1484 1484 1483 1483 1482 1482 1482 1482
1475 1477 1480 1482 1483 1485 1487 1488 1489 1491 1492 1493 1495 1496 1496 1497 1497 1497 1497 1496 1495 1494 1493 1491 1490 1489 1488 1487 1486 1486 1485 1485 1484 1484 1484 1483 1482 1481 1481 1480 1479 1479 1479 1478
1477 1480 1481 1483 1484 1486 1487 1489 1490 1491 1493 1494 1495 1495 1496 1496 1496 1496 1496 1495 1494 1493 1491 1490 1488 1487 1485 1485 1484 1484 1483 1483 1483 1482 1481 1480 1479 1479 1478 1477 1477 1476 1475 1475
1480 1481 1483 1484 1485 1487 1488 1489 1490 1492 1493 1494 1494 1495 1496 1496 1496 1495 1495 1494 1492 1491 1490 1488 1486 1485 1483 1483 1482 1482 1481 1481 1481 1480 1479 1479 1478 1477 1476 1475 1475 1474 1473 1472
1481 1483 1484 1485 1486 1487 1488 1489 1490 1491 1492 1493 1494 1494 1495 1495 1495 1494 1493 1492 1491 1489 1488 1486 1485 1483 1482 1481 1481 1480 1479 1479 1478 1478 1477 1477 1476 1475 1475 1474 1473 1472 1471 1470
1481 1483 1484 1485 1486 1488 1489 1490 1490 1491 1492 1493 1493 1494 1494 1494 1493 1492 1492 1491 1490 1488 1487 1485 1483 1482 1480 1479 1479 1478 1478 1477 1476 1476 1475 1475 1474 1473 1472 1471 1470 1469 1469 1468
1481 1483 1484 1485 1486 1487 1488 1489 1490 1491 1492 1492 1492 1492 1492 1492 1492 1491 1490 1489 1488 1486 1485 1483 1482 1480 1479 1478 1477 1476 1476 1475 1474 1474 1473 1472 1472 1471 1470 1469 1468 1467 1466 1465
1481 1482 1483 1485 1486 1487 1488 1488 1489 1490 1491 1491 1491 1491 1491 1491 1490 1489 1489 1487 1486 1484 1483 1482 1480 1479 1477 1476 1475 1474 1474 1473 1472 1472 1471 1470 1469 1469 1468 1467 1466 1465 1464 1463
1480 1482 1483 1484 1485 1486 1487 1488 1489 1489 1489 1490 1490 1490 1490 1489 1489 1488 1487 1486 1485 1483 1482 1480 1479 1477 1476 1475 1474 1473 1472 1471 1470 1470 1469 1468 1467 1466 1466 1465 1464 1463 1462 1461
1480 1482 1483 1484 1485 1486 1486 1487 1487 1488 1488 1488 1489 1488 1488 1488 1487 1486 1485 1484 1483 1482 1480 1479 1477 1476 1475 1474 1473 1472 1471 1470 1469 1468 1467 1466 1465 1465 1464 1463 1463 1461 1460 1460
1480 1481 1482 1483 1484 1485 1486 1486 1486 1487 1487 1487 1487 1487 1487 1486 1485 1485 1484 1483 1482 1480 1479 1478 1476 1475 1474 1473 1471 1470 1469 1468 1467 1466 1466 1465 1464 1464 1463 1462 1461 1460 1459 1458
1481 1481 1482 1483 1484 1484 1485 1485 1485 1485 1485 1485 1485 1485 1485 1484 1484 1483 1482 1481 1480 1479 1478 1477 1475 1474 1472 1471 1470 1469 1468 1467 1466 1465 1465 1464 1463 1463 1462 1461 1460 1459 1458 1458
1480 1481 1482 1483 1483 1483 1484 1484 1484 1484 1484 1484 1484 1484 1483 1483 1482 1481 1480 1479 1478 1477 1476 1475 1474 1473 1471 1470 1469 1467 1467 1466 1465 1464 1463 1463 1462 1461 1461 1460 1459 1458 1457 1456
1481 1481 1482 1482 1482 1482 1482 1483 1483 1483 1483 1482 1482 1482 1481 1481 1480 1479 1479 1477 1476 1476 1475 1474 1472 1471 1470 1469 1468 1466 1465 1464 1463 1463 1462 1461 1461 1460 1459 1459 1458 1457 1456 1455
1480 1481 1481 1481 1481 1481 1482 1482 1482 1482 1481 1481 1480 1480 1480 1479 1478 1478 1477 1476 1475 1474 1473 1472 1471 1470 1469 1468 1467 1466 1464 1463 1462 1461 1461 1460 1459 1458 1458 1457 1456 1455 1454 1453
1479 1479 1479 1480 1480 1480 1480 1480 1480 1480 1480 1479 1479 1479 1478 1477 1477 1476 1476 1475 1474 1473 1472 1471 1470 1469 1468 1467 1466 1465 1463 1462 1461 1460 1459 1458 1457 1457 1456 1455 1455 1454 1453 1452